Decimomannu, Italy

4:25 AM CEST on August 19, 2017 (GMT +0200)
Decimomannu Mil

Weather History for LIED - October, 2012

Change the Weather History Date:

Thursday, October 4, 2012

  Actual Average Record
Temperature  
Mean Temperature 68 °F -  
Max Temperature 82 °F 73 °F 89 °F (2001)
Min Temperature 55 °F 54 °F 51 °F (1998)
Cooling Degree Days 4    
Growing Degree Days 18 (Base 50)    
Moisture  
Dew Point 60 °F    
Average Humidity 75    
Maximum Humidity 94    
Minimum Humidity 43    
Precipitation  
Precipitation 0.00 in 0.07 in - ()
Sea Level Pressure  
Sea Level Pressure 30.06 in    
Wind  
Wind Speed 4 mph ()    
Max Wind Speed 14 mph    
Max Gust Speed -    
Visibility 9.7 miles    
Events      
Averages and records for this station are not official NWS values.
T = Trace of Precipitation, MM = Missing Value Source: Averaged Metar Reports

Daily Weather History Graph

Daily Weather History Graph

Search for Another Location

Airport or City:

Trip Planner

Search our weather history database for the weather conditions in past years. The results will help you decide how hot, cold, wet, or windy it might be!

Date:

Astronomy

Oct. 04, 2012 Rise Set
Actual Time 7:23 AM CEST 7:01 PM CEST
Civil Twilight 6:56 AM CEST 7:28 PM CEST
Nautical Twilight 6:25 AM CEST 7:59 PM CEST
Astronomical Twilight 5:54 AM CEST 8:30 PM CEST
Moon 9:26 PM CEST (10/4) 11:24 AM CEST (10/4)
Length of Visible Light 12h 31m
Length of Day
11h 38m
Waning Gibbous, 84% of the Moon is Illuminated
Oct 4
Waning Gibbous
Oct 8
Last Quarter
Oct 15
New
Oct 22
First Quarter
Oct 29
Full

Hourly Weather History & Observations

Time (CEST) Temp. Heat Index Dew Point Humidity Pressure Visibility Wind Dir Wind Speed Gust Speed Precip Events Conditions
12:55 AM 64.4 °F - 60.8 °F 88% 30.12 in - North 3.5 mph - N/A   Clear
2:00 AM 63 °F - 59 °F 83% 30.12 in 12 mi NNW 3.5 mph - -  
2:55 AM 59.0 °F - 55.4 °F 88% 30.09 in - NW 4.6 mph - N/A   Clear
3:55 AM 59.0 °F - 53.6 °F 82% 30.09 in - NW 1.2 mph - N/A   Clear
4:55 AM 59.0 °F - 55.4 °F 88% 30.09 in - NW 1.2 mph - N/A   Clear
5:00 AM 59 °F - 54 °F 80% 30.10 in 12 mi NW 1.2 mph - -  
5:55 AM 57.2 °F - 53.6 °F 88% 30.06 in - NNE 3.5 mph - N/A   Clear
6:55 AM 57.2 °F - 53.6 °F 88% 30.06 in 6.2 mi NNE 3.5 mph - N/A   Partly Cloudy
7:55 AM 55.4 °F - 51.8 °F 88% 30.06 in - NNW 2.3 mph - N/A   Clear
8:00 AM 56 °F - 52 °F 82% 30.09 in 12 mi NNW 2.3 mph - -  
8:55 AM 59.0 °F - 55.4 °F 88% 30.06 in - WNW 2.3 mph - N/A   Clear
9:55 AM 64.4 °F - 59.0 °F 83% 30.06 in - WNW 1.2 mph - N/A   Clear
10:55 AM 75.2 °F - 59.0 °F 57% 30.09 in - SW 1.2 mph - N/A   Clear
11:00 AM 75 °F - 59 °F 49% 30.09 in 19 mi SW 1.2 mph - -  
11:55 AM 78.8 °F - 59.0 °F 51% 30.09 in - SE 4.6 mph - N/A   Clear
12:55 PM 80.6 °F 81.5 °F 60.8 °F 51% 30.06 in 6.2 mi SSE 9.2 mph - N/A   Partly Cloudy
1:55 PM 80.6 °F 81.8 °F 62.6 °F 54% 30.04 in 6.2 mi SSE 13.8 mph - N/A   Partly Cloudy
2:00 PM 81 °F - 62 °F 43% 30.05 in 19 mi SSE 13.8 mph - -   Scattered Clouds
2:55 PM 80.6 °F 82.7 °F 66.2 °F 61% 30.04 in 6.2 mi SSE 13.8 mph - N/A   Partly Cloudy
3:55 PM 80.6 °F 81.5 °F 60.8 °F 51% 30.04 in 6.2 mi SSE 13.8 mph - N/A   Partly Cloudy
4:55 PM 78.8 °F - 64.4 °F 61% 30.01 in - SSE 12.7 mph - N/A   Clear
5:55 PM 77.0 °F - 62.6 °F 61% 30.01 in - SE 11.5 mph - N/A   Clear
6:55 PM 73.4 °F - 64.4 °F 73% 30.04 in - SE 10.4 mph - N/A   Clear
7:55 PM 71.6 °F - 66.2 °F 83% 30.04 in - SE 5.8 mph - N/A   Clear
8:00 PM 72 °F - 67 °F 79% 30.05 in 9 mi SE 5.8 mph - -  
8:55 PM 69.8 °F - 64.4 °F 83% 30.04 in - ESE 2.3 mph - N/A   Clear
9:55 PM 68.0 °F - 64.4 °F 88% 30.06 in - NE 4.6 mph - N/A   Clear
10:55 PM 66.2 °F - 64.4 °F 94% 30.06 in 6.2 mi Calm Calm - N/A   Partly Cloudy
11:00 PM 67 °F - 64 °F 85% 30.06 in 9 mi Calm Calm - -   Scattered Clouds
11:55 PM 66.2 °F - 62.6 °F 88% 30.06 in 6.2 mi NNE 3.5 mph - N/A   Partly Cloudy